Location: Caltech
(34.1382°N, 118.1253°W)
Time: 19:23:42
(UTC-08:00)

Cosmos 2237 Rocket - Visible Passes

Search period start: 08 February 2016 00:00
Search period end: 18 February 2016 00:00
Orbit: 835 x 850 km, 71.0° (Epoch: 08 February)

Date Brightness Start Highest point End Pass type
(mag) Time Alt. Az. Time Alt. Az. Time Alt. Az.
08 Feb 5.1 18:57:34 10° WNW 18:58:24 10° NW 18:59:13 10° NW visible
09 Feb 5.0 18:42:05 10° WNW 18:43:32 11° NW 18:45:00 10° NW visible
10 Feb 5.0 18:26:48 10° WNW 18:28:40 12° NW 18:30:33 10° NNW visible
11 Feb 4.9 18:11:36 10° WNW 18:13:48 12° NW 18:16:02 10° NNW visible
12 Feb 4.8 17:56:27 10° W 17:58:57 13° NW 18:01:27 10° NNW visible
